| time (UTC) | temp C | wind direction | speed KPH | gust KPH | rain 1hr cm | rain 24hr cm | rain mn cm | humidity % | barometer mb |
| 20260504002524 | 20 | 247 | 6.4 | 14.5 | 0.00 | 0.00 | 0.00 | 50 | 1025.1 |
| 20260504002024 | 20 | 322 | 3.2 | 12.9 | 0.00 | 0.00 | 0.00 | 50 | 1024.9 |
| 20260504001525 | 20 | 305 | 4.8 | 14.5 | 0.00 | 0.00 | 0.00 | 49 | 1024.8 |
| 20260504001021 | 20 | 354 | 6.4 | 14.5 | 0.00 | 0.00 | 0.00 | 48 | 1024.7 |
| 20260504000520 | 20 | 316 | 3.2 | 19.3 | 0.00 | 0.00 | 0.00 | 49 | 1024.6 |
| 20260504000020 | 20 | 344 | 6.4 | 19.3 | 0.00 | 0.00 | 0.00 | 49 | 1024.7 |
| 20260503235520 | 21 | 310 | 6.4 | 16.1 | 0.00 | 0.00 | 0.00 | 48 | 1024.7 |
| 20260503235020 | 21 | 320 | 6.4 | 12.9 | 0.00 | 0.00 | 0.00 | 48 | 1024.7 |
| 20260503234527 | 21 | 252 | 4.8 | 12.9 | 0.00 | 0.00 | 0.00 | 48 | 1024.7 |
| 20260503234019 | 21 | 301 | 6.4 | 14.5 | 0.00 | 0.00 | 0.00 | 47 | 1024.8 |
| 20260503233519 | 21 | 285 | 4.8 | 12.9 | 0.00 | 0.00 | 0.00 | 47 | 1024.9 |
| 20260503233017 | 21 | 333 | 4.8 | 14.5 | 0.00 | 0.00 | 0.00 | 46 | 1024.8 |
| 20260503232517 | 21 | 286 | 6.4 | 14.5 | 0.00 | 0.00 | 0.00 | 46 | 1025.0 |
| 20260503232016 | 21 | 359 | 6.4 | 16.1 | 0.00 | 0.00 | 0.00 | 46 | 1025.1 |
| 20260503231516 | 21 | 332 | 6.4 | 16.1 | 0.00 | 0.00 | 0.00 | 46 | 1025.1 |
| 20260503231020 | 21 | 328 | 6.4 | 16.1 | 0.00 | 0.00 | 0.00 | 46 | 1025.1 |
| 20260503230545 | 22 | 291 | 6.4 | 16.1 | 0.00 | 0.00 | 0.00 | 45 | 1025.4 |
| 20260503230045 | 22 | 345 | 6.4 | 17.7 | 0.00 | 0.00 | 0.00 | 45 | 1025.3 |
| 20260503225544 | 22 | 359 | 4.8 | 17.7 | 0.00 | 0.00 | 0.00 | 45 | 1025.3 |
| 20260503225044 | 22 | 359 | 4.8 | 16.1 | 0.00 | 0.00 | 0.00 | 45 | 1025.4 |
| 20260503224544 | 22 | 359 | 6.4 | 16.1 | 0.00 | 0.00 | 0.00 | 44 | 1025.5 |
| 20260503224045 | 22 | 313 | 4.8 | 12.9 | 0.00 | 0.00 | 0.00 | 44 | 1025.4 |
| 20260503223518 | 22 | 341 | 4.8 | 14.5 | 0.00 | 0.00 | 0.00 | 45 | 1025.7 |
| 20260503223012 | 21 | 302 | 4.8 | 17.7 | 0.00 | 0.00 | 0.00 | 45 | 1025.7 |
| 20260503222512 | 21 | 326 | 8.0 | 17.7 | 0.00 | 0.00 | 0.00 | 45 | 1025.9 |
| 20260503222011 | 21 | 359 | 6.4 | 19.3 | 0.00 | 0.00 | 0.00 | 45 | 1025.9 |
| 20260503221511 | 21 | 323 | 6.4 | 22.5 | 0.00 | 0.00 | 0.00 | 45 | 1026.0 |
| 20260503221015 | 22 | 301 | 8.0 | 22.5 | 0.00 | 0.00 | 0.00 | 45 | 1026.2 |
| 20260503220508 | 22 | 21 | 4.8 | 14.5 | 0.00 | 0.00 | 0.00 | 45 | 1026.1 |
| 20260503220024 | 21 | 354 | 6.4 | 22.5 | 0.00 | 0.00 | 0.00 | 45 | 1026.2 |
| 20260503215507 | 21 | 312 | 6.4 | 17.7 | 0.00 | 0.00 | 0.00 | 45 | 1026.5 |
| 20260503215005 | 22 | 326 | 11.3 | 17.7 | 0.00 | 0.00 | 0.00 | 44 | 1026.6 |
| 20260503214505 | 22 | 329 | 4.8 | 14.5 | 0.00 | 0.00 | 0.00 | 44 | 1026.5 |
| 20260503214005 | 22 | 280 | 6.4 | 14.5 | 0.00 | 0.00 | 0.00 | 44 | 1026.7 |
| 20260503213504 | 22 | 272 | 4.8 | 14.5 | 0.00 | 0.00 | 0.00 | 45 | 1026.6 |
| 20260503213008 | 22 | 321 | 8.0 | 17.7 | 0.00 | 0.00 | 0.00 | 44 | 1026.8 |
| 20260503212502 | 22 | 287 | 3.2 | 17.7 | 0.00 | 0.00 | 0.00 | 45 | 1026.9 |
| 20260503212002 | 22 | 345 | 8.0 | 20.9 | 0.00 | 0.00 | 0.00 | 45 | 1027.1 |
| 20260503211502 | 22 | 347 | 9.7 | 20.9 | 0.00 | 0.00 | 0.00 | 45 | 1027.1 |
| 20260503211100 | 22 | 359 | 6.4 | 14.5 | 0.00 | 0.00 | 0.00 | 46 | 1027.0 |
| 20260503210556 | 21 | 267 | 6.4 | 16.1 | 0.00 | 0.00 | 0.00 | 46 | 1027.1 |
| 20260503205554 | 21 | 301 | 8.0 | 17.7 | 0.00 | 0.00 | 0.00 | 47 | 1027.2 |
| 20260503205056 | 21 | 20 | 6.4 | 17.7 | 0.00 | 0.00 | 0.00 | 48 | 1027.4 |
| 20260503204554 | 21 | 333 | 3.2 | 16.1 | 0.00 | 0.00 | 0.00 | 49 | 1027.3 |
| 20260503204055 | 21 | 4 | 9.7 | 16.1 | 0.00 | 0.00 | 0.00 | 49 | 1027.4 |
| 20260503203550 | 21 | 354 | 6.4 | 12.9 | 0.00 | 0.00 | 0.00 | 50 | 1027.6 |
| 20260503203053 | 21 | 311 | 4.8 | 12.9 | 0.00 | 0.00 | 0.00 | 51 | 1027.8 |
| 20260503202548 | 20 | 251 | 3.2 | 12.9 | 0.00 | 0.00 | 0.00 | 52 | 1027.9 |
| 20260503202047 | 20 | 359 | 4.8 | 14.5 | 0.00 | 0.00 | 0.00 | 52 | 1028.0 |
| 20260503201546 | 20 | 359 | 6.4 | 17.7 | 0.00 | 0.00 | 0.00 | 52 | 1028.2 |
| 20260503201045 | 20 | 333 | 11.3 | 17.7 | 0.00 | 0.00 | 0.00 | 52 | 1028.5 |
| 20260503200545 | 20 | 70 | 4.8 | 14.5 | 0.00 | 0.00 | 0.00 | 53 | 1028.8 |
| 20260503200046 | 20 | 27 | 3.2 | 12.9 | 0.00 | 0.00 | 0.00 | 54 | 1028.8 |
| 20260503195538 | 20 | 245 | 3.2 | 12.9 | 0.00 | 0.03 | 0.00 | 55 | 1029.0 |
| 20260503195038 | 19 | 27 | 4.8 | 12.9 | 0.00 | 0.03 | 0.00 | 55 | 1029.2 |
| 20260503194541 | 20 | 335 | 4.8 | 12.9 | 0.00 | 0.03 | 0.00 | 55 | 1029.2 |
| 20260503194036 | 19 | 359 | 3.2 | 12.9 | 0.00 | 0.03 | 0.00 | 55 | 1029.2 |
| 20260503193535 | 19 | 322 | 4.8 | 17.7 | 0.00 | 0.03 | 0.00 | 56 | 1029.3 |
| 20260503193036 | 19 | 359 | 8.0 | 17.7 | 0.00 | 0.03 | 0.00 | 56 | 1029.6 |
| 20260503192533 | 19 | 310 | 6.4 | 14.5 | 0.00 | 0.03 | 0.00 | 55 | 1029.6 |
| 20260503192034 | 19 | 297 | 4.8 | 14.5 | 0.00 | 0.03 | 0.00 | 56 | 1029.6 |
| 20260503191532 | 19 | 269 | 6.4 | 14.5 | 0.00 | 0.03 | 0.00 | 56 | 1029.8 |
| 20260503191031 | 19 | 255 | 1.6 | 9.7 | 0.00 | 0.03 | 0.00 | 58 | 1029.9 |
| 20260503190529 | 18 | 308 | 3.2 | 9.7 | 0.00 | 0.03 | 0.00 | 59 | 1030.1 |
| 20260503190029 | 18 | 275 | 3.2 | 12.9 | 0.00 | 0.03 | 0.00 | 59 | 1030.3 |
| 20260503185526 | 18 | 312 | 3.2 | 12.9 | 0.00 | 0.03 | 0.03 | 60 | 1030.6 |
| 20260503185025 | 18 | 290 | 3.2 | 12.9 | 0.00 | 0.03 | 0.03 | 61 | 1030.6 |
| 20260503184522 | 17 | 262 | 1.6 | 11.3 | 0.00 | 0.03 | 0.03 | 62 | 1030.5 |
| 20260503184021 | 17 | 293 | 0.0 | 8.0 | 0.00 | 0.03 | 0.03 | 63 | 1030.6 |
| 20260503183521 | 17 | 272 | 1.6 | 11.3 | 0.00 | 0.03 | 0.03 | 63 | 1030.8 |
| 20260503183031 | 17 | 281 | 1.6 | 11.3 | 0.00 | 0.03 | 0.03 | 65 | 1031.0 |
| 20260503182517 | 16 | 281 | 4.8 | 11.3 | 0.00 | 0.03 | 0.03 | 66 | 1031.1 |
| 20260503182017 | 16 | 359 | 4.8 | 9.7 | 0.00 | 0.03 | 0.03 | 67 | 1031.2 |
| 20260503181516 | 16 | 306 | 3.2 | 9.7 | 0.00 | 0.03 | 0.03 | 67 | 1031.4 |
| 20260503181016 | 16 | 240 | 3.2 | 9.7 | 0.00 | 0.03 | 0.03 | 68 | 1031.3 |
| 20260503180516 | 16 | 330 | 3.2 | 9.7 | 0.00 | 0.03 | 0.03 | 68 | 1031.6 |
| 20260503180017 | 16 | 299 | 3.2 | 9.7 | 0.00 | 0.03 | 0.03 | 69 | 1031.6 |
| 20260503175511 | 15 | 359 | 3.2 | 9.7 | 0.00 | 0.03 | 0.03 | 69 | 1031.8 |
| 20260503175015 | 15 | 340 | 0.0 | 9.7 | 0.00 | 0.03 | 0.03 | 69 | 1031.7 |
| 20260503174512 | 16 | 8 | 1.6 | 9.7 | 0.00 | 0.03 | 0.03 | 69 | 1031.8 |
| 20260503174011 | 16 | 283 | 3.2 | 9.7 | 0.00 | 0.03 | 0.03 | 69 | 1031.8 |
| 20260503173512 | 15 | 305 | 3.2 | 8.0 | 0.00 | 0.03 | 0.03 | 71 | 1032.0 |
| 20260503173008 | 15 | 221 | 3.2 | 8.0 | 0.00 | 0.03 | 0.03 | 72 | 1032.0 |
| 20260503172506 | 15 | 60 | 0.0 | 4.8 | 0.00 | 0.03 | 0.03 | 74 | 1032.2 |
| 20260503172006 | 14 | 322 | 0.0 | 6.4 | 0.00 | 0.03 | 0.03 | 75 | 1032.3 |
| 20260503171505 | 13 | 318 | 3.2 | 6.4 | 0.00 | 0.03 | 0.03 | 75 | 1032.4 |
| 20260503171003 | 13 | 4 | 0.0 | 6.4 | 0.00 | 0.03 | 0.03 | 76 | 1032.4 |
| 20260503170502 | 13 | 252 | 0.0 | 4.8 | 0.00 | 0.03 | 0.03 | 76 | 1032.3 |
| 20260503150550 | 11 | 13 | 1.6 | 9.7 | 0.00 | 0.03 | 0.03 | 67 | 1032.8 |
| 20260503131010 | 10 | 308 | 1.6 | 6.4 | 0.00 | 0.03 | 0.03 | 70 | 1031.4 |
| 20260503130506 | 10 | 339 | 1.6 | 6.4 | 0.00 | 0.03 | 0.03 | 70 | 1031.2 |
| 20260503110558 | 10 | 348 | 3.2 | 6.4 | 0.00 | 0.03 | 0.03 | 70 | 1029.9 |
| 20260503081518 | 11 | 336 | 0.0 | 1.6 | 0.00 | 0.03 | 0.03 | 72 | 1030.0 |
| 20260503081015 | 11 | 336 | 0.0 | 3.2 | 0.00 | 0.03 | 0.03 | 72 | 1030.1 |
| 20260503080516 | 11 | 336 | 0.0 | 4.8 | 0.00 | 0.03 | 0.03 | 72 | 1030.3 |
| 20260503072545 | 11 | 309 | 1.6 | 6.4 | 0.00 | 0.03 | 0.03 | 72 | 1031.1 |
| 20260503072042 | 11 | 354 | 0.0 | 8.0 | 0.00 | 0.03 | 0.03 | 73 | 1031.2 |
| 20260503071542 | 11 | 341 | 3.2 | 8.0 | 0.00 | 0.03 | 0.03 | 73 | 1031.2 |
| 20260503071042 | 11 | 333 | 1.6 | 8.0 | 0.00 | 0.03 | 0.03 | 73 | 1031.2 |
| 20260503070540 | 11 | 15 | 3.2 | 9.7 | 0.00 | 0.03 | 0.03 | 74 | 1031.2 |
| 20260503055033 | 11 | 344 | 3.2 | 6.4 | 0.00 | 0.03 | 0.03 | 76 | 1030.8 |
| 20260503054542 | 11 | 42 | 0.0 | 4.8 | 0.00 | 0.03 | 0.03 | 76 | 1030.8 |
| 20260503054033 | 11 | 354 | 1.6 | 12.9 | 0.00 | 0.03 | 0.03 | 76 | 1030.9 |
| 20260503053533 | 11 | 359 | 4.8 | 12.9 | 0.00 | 0.03 | 0.03 | 76 | 1031.0 |
| 20260503053034 | 11 | 341 | 4.8 | 9.7 | 0.00 | 0.03 | 0.03 | 76 | 1031.0 |
| 20260503052532 | 11 | 22 | 4.8 | 8.0 | 0.00 | 0.03 | 0.03 | 76 | 1030.9 |
| 20260503052031 | 11 | 31 | 3.2 | 8.0 | 0.00 | 0.03 | 0.03 | 76 | 1030.8 |
| 20260503051529 | 11 | 11 | 1.6 | 4.8 | 0.00 | 0.03 | 0.03 | 76 | 1030.8 |
| 20260503051028 | 11 | 24 | 1.6 | 4.8 | 0.00 | 0.03 | 0.03 | 77 | 1030.7 |
| 20260503050528 | 11 | 35 | 1.6 | 6.4 | 0.00 | 0.03 | 0.03 | 77 | 1030.7 |
| 20260503050035 | 11 | 41 | 0.0 | 6.4 | 0.00 | 0.03 | 0.03 | 77 | 1030.7 |
| 20260503045531 | 11 | 21 | 1.6 | 9.7 | 0.00 | 0.05 | 0.03 | 77 | 1030.7 |
| 20260503045027 | 11 | 359 | 3.2 | 9.7 | 0.00 | 0.05 | 0.03 | 76 | 1030.7 |
| 20260503044526 | 11 | 344 | 1.6 | 8.0 | 0.00 | 0.05 | 0.03 | 76 | 1030.6 |
| 20260503044027 | 11 | 354 | 3.2 | 8.0 | 0.00 | 0.05 | 0.03 | 76 | 1030.4 |
| 20260503043526 | 12 | 17 | 3.2 | 8.0 | 0.00 | 0.05 | 0.03 | 76 | 1030.4 |
| 20260503043026 | 12 | 306 | 3.2 | 6.4 | 0.00 | 0.05 | 0.03 | 76 | 1030.5 |
| 20260503042526 | 12 | 4 | 1.6 | 6.4 | 0.00 | 0.05 | 0.03 | 76 | 1030.7 |
| 20260503042026 | 12 | 337 | 1.6 | 8.0 | 0.00 | 0.05 | 0.03 | 76 | 1030.7 |
| 20260503041523 | 12 | 16 | 1.6 | 9.7 | 0.00 | 0.05 | 0.03 | 76 | 1030.5 |
| 20260503041024 | 12 | 347 | 1.6 | 9.7 | 0.00 | 0.05 | 0.03 | 76 | 1030.4 |
| 20260503040523 | 12 | 29 | 1.6 | 8.0 | 0.00 | 0.05 | 0.03 | 76 | 1030.5 |
| 20260503040029 | 12 | 24 | 3.2 | 12.9 | 0.00 | 0.05 | 0.03 | 76 | 1030.4 |
| 20260503035522 | 12 | 335 | 3.2 | 12.9 | 0.00 | 0.05 | 0.03 | 76 | 1030.3 |
| 20260503035022 | 12 | 314 | 1.6 | 8.0 | 0.00 | 0.05 | 0.03 | 76 | 1030.3 |
| 20260503034533 | 12 | 318 | 0.0 | 4.8 | 0.00 | 0.05 | 0.03 | 76 | 1030.2 |
| 20260503034021 | 11 | 343 | 1.6 | 6.4 | 0.00 | 0.05 | 0.03 | 76 | 1030.1 |
| 20260503033520 | 11 | 341 | 1.6 | 6.4 | 0.00 | 0.05 | 0.03 | 76 | 1030.1 |
| 20260503033027 | 11 | 13 | 1.6 | 8.0 | 0.00 | 0.05 | 0.03 | 76 | 1030.1 |
| 20260503032519 | 11 | 359 | 3.2 | 8.0 | 0.00 | 0.05 | 0.03 | 76 | 1030.0 |
| 20260503032022 | 11 | 326 | 3.2 | 6.4 | 0.00 | 0.05 | 0.03 | 76 | 1030.1 |
| 20260503031517 | 11 | 341 | 1.6 | 4.8 | 0.00 | 0.05 | 0.03 | 76 | 1030.2 |
| 20260503031020 | 11 | 327 | 1.6 | 6.4 | 0.00 | 0.05 | 0.03 | 77 | 1030.2 |
| 20260503030516 | 11 | 13 | 1.6 | 6.4 | 0.00 | 0.05 | 0.03 | 76 | 1030.0 |
| 20260503030015 | 11 | 359 | 0.0 | 6.4 | 0.00 | 0.05 | 0.03 | 76 | 1029.9 |
| 20260503025516 | 11 | 359 | 1.6 | 4.8 | 0.00 | 0.05 | 0.03 | 76 | 1030.1 |
| 20260503025016 | 12 | 341 | 1.6 | 6.4 | 0.00 | 0.05 | 0.03 | 77 | 1030.0 |
| 20260503024515 | 12 | 39 | 1.6 | 9.7 | 0.00 | 0.05 | 0.03 | 76 | 1030.0 |
| 20260503024015 | 12 | 334 | 1.6 | 9.7 | 0.00 | 0.05 | 0.03 | 76 | 1029.9 |
| 20260503023515 | 12 | 321 | 4.8 | 8.0 | 0.00 | 0.05 | 0.03 | 76 | 1029.9 |
| 20260503023014 | 12 | 332 | 3.2 | 12.9 | 0.00 | 0.05 | 0.03 | 76 | 1029.9 |
| 20260503022514 | 12 | 324 | 6.4 | 12.9 | 0.00 | 0.05 | 0.03 | 76 | 1029.9 |
| 20260503022014 | 12 | 343 | 3.2 | 14.5 | 0.00 | 0.05 | 0.03 | 76 | 1030.0 |
| 20260503021511 | 12 | 359 | 8.0 | 14.5 | 0.00 | 0.05 | 0.03 | 76 | 1029.8 |
| 20260503021011 | 12 | 18 | 4.8 | 12.9 | 0.00 | 0.05 | 0.03 | 76 | 1029.7 |
| 20260503020510 | 12 | 10 | 3.2 | 14.5 | 0.00 | 0.05 | 0.03 | 76 | 1029.6 |
| 20260503020009 | 12 | 343 | 4.8 | 14.5 | 0.00 | 0.05 | 0.03 | 76 | 1029.3 |
| 20260503015508 | 12 | 359 | 3.2 | 14.5 | 0.00 | 0.05 | 0.03 | 76 | 1029.0 |
| 20260503015010 | 12 | 4 | 4.8 | 9.7 | 0.00 | 0.05 | 0.03 | 76 | 1028.8 |
| 20260503014508 | 12 | 335 | 1.6 | 9.7 | 0.00 | 0.05 | 0.03 | 76 | 1028.6 |
| 20260503014006 | 12 | 308 | 1.6 | 9.7 | 0.00 | 0.05 | 0.03 | 76 | 1028.6 |
| 20260503013508 | 12 | 295 | 4.8 | 12.9 | 0.00 | 0.05 | 0.03 | 76 | 1028.4 |
| 20260503013016 | 12 | 12 | 6.4 | 12.9 | 0.00 | 0.05 | 0.03 | 76 | 1028.3 |
| 20260503012504 | 12 | 330 | 3.2 | 12.9 | 0.00 | 0.05 | 0.03 | 76 | 1028.4 |
| 20260503012008 | 12 | 332 | 4.8 | 12.9 | 0.00 | 0.05 | 0.03 | 76 | 1028.3 |
| 20260503011503 | 12 | 314 | 6.4 | 16.1 | 0.00 | 0.05 | 0.03 | 75 | 1028.3 |
| 20260503011002 | 12 | 303 | 6.4 | 16.1 | 0.00 | 0.05 | 0.03 | 75 | 1028.1 |
| 20260503010502 | 12 | 301 | 6.4 | 14.5 | 0.00 | 0.05 | 0.03 | 75 | 1028.0 |
| 20260503010002 | 12 | 332 | 4.8 | 14.5 | 0.00 | 0.05 | 0.03 | 75 | 1028.0 |
| 20260503005502 | 12 | 359 | 6.4 | 12.9 | 0.00 | 0.05 | 0.03 | 75 | 1028.0 |
| 20260503005002 | 12 | 341 | 4.8 | 12.9 | 0.00 | 0.05 | 0.03 | 75 | 1028.1 |
| 20260503004601 | 12 | 335 | 4.8 | 12.9 | 0.00 | 0.05 | 0.03 | 75 | 1028.1 |
| 20260503004102 | 12 | 289 | 4.8 | 12.9 | 0.00 | 0.05 | 0.03 | 75 | 1028.1 |
| 20260503004002 | 12 | 324 | 4.8 | 12.9 | 0.00 | 0.05 | 0.03 | 76 | 1028.1 |
| 20260503003600 | 12 | 354 | 3.2 | 8.0 | 0.00 | 0.05 | 0.03 | 76 | 1028.1 |
| 20260503003101 | 12 | 18 | 1.6 | 6.4 | 0.00 | 0.05 | 0.03 | 76 | 1028.1 |